GOMX-4A

Last updated on Mon Aug 19 2024 00:03:36 GMT+0000 (Coordinated Universal Time)

1 43197U 18015F 24231.57785391 .12036390 27077-5 33718-3 0 9993 2 43197 97.5695 57.6561 0009227 255.6517 104.3760 16.44816160365796
UTC large
Height (km)
Speed (km/s)
/
Latitude / Longitude
Inclination (degrees)
Orbital Period (minutes)
Azimuth
Elevation
Range (km)
Doppler Factor

Next 0 passes for location: London (51.5072 / 0.1276)

Sorry there are no passes over London.